Current weather by "City, St" or "zip code"  
 
Advertise Here

Current Conditions: Sacramento International Airport, CA

Fair


70.0 F

Last Updated on Sep 16 2021, 7:53 pm PDT
Humidity: 57%
Wind Speed: S 10.4 mph
Barometer 29.76 in
Dewpoint: 54.0 F
Visibility: 10.00 mi
Precip: --
Heat Index: NA
Wind Chill: NA
Current conditions at:

Sacramento International Airport, CA (KSMF)

Lat: 38.70071 Lon: 121.59479

Local Radar Image active severe weather and emergency alerts image image weather storm and storm spotter reports image weather observation monitoring service image
Local
Radar
Active
Alerts
Storm Reports Obs
Monitoring

Sign-up For Email & Text Message Weather Alert Notification Services



Advertise Here

Observation History for Sacramento International Airport, CA


Time Wind
(mph)
Vis
(mi)
Weather Precip (in) Temperature (F) Relative
Humidity
Wind
Chill
(F)
Heat
Index
(F)
Pressure
Air Dwpt altimeter
(in)
sea level
(mb)
Rmks
7:53 pm PDT S 10.4 10.00 Fair -- 70.0 54.0 57% NA NA 29.76 1007.8
6:53 pm PDT S 11.5 10.00 Fair -- 75.0 53.1 46% NA NA 29.76 1007.5
5:53 pm PDT S 11.5 10.00 Fair -- 79.0 52.0 39% NA NA 29.75 1007.2
4:53 pm PDT S 9.2 10.00 Fair -- 82.0 54.0 38% NA 81 29.75 1007.2
3:53 pm PDT S 11.5 10.00 Fair -- 82.0 54.0 38% NA 81 29.76 1007.6
2:53 pm PDT S 8.1 G 16.1 10.00 Fair -- 81.0 52.0 37% NA 80 29.77 1008.0
1:53 pm PDT S 8.1 10.00 Fair -- 78.0 53.1 42% NA NA 29.78 1008.4
12:53 pm PDT S 4.6 9.00 Fair -- 73.0 53.1 50% NA NA 29.80 1009.1
11:53 am PDT S 4.6 9.00 Fair -- 68.0 53.1 59% NA NA 29.82 1009.8
10:53 am PDT SE 4.6 8.00 Fair -- 66.0 52.0 61% NA NA 29.83 1010.2
9:53 am PDT 5.8 9.00 Fair -- 62.0 53.1 73% 62 NA 29.83 1009.9
8:53 am PDT S 4.6 10.00 Fair -- 59.0 53.1 81% 59 NA 29.82 1009.6
7:53 am PDT SE 6.9 9.00 Fair -- 56.0 52.0 87% 54 NA 29.81 1009.3
6:53 am PDT S 9.2 9.00 A Few Clouds -- 55.0 52.0 90% 52 NA 29.78 1008.5
5:53 am PDT S 8.1 10.00 A Few Clouds -- 56.0 52.0 87% 54 NA 29.78 1008.2
4:53 am PDT S 11.5 10.00 A Few Clouds -- 56.0 52.0 87% 53 NA 29.77 1007.9
3:53 am PDT S 12.7 10.00 Fair -- 57.0 52.0 83% 54 NA 29.77 1008.2
2:53 am PDT S 16.1 10.00 Fair -- 57.0 52.0 83% 53 NA 29.77 1008.1
1:53 am PDT S 15.0 G 20.7 10.00 Fair -- 58.0 52.0 81% 55 NA 29.78 1008.3
12:53 am PDT S 15.0 10.00 Fair -- 58.0 52.0 81% 55 NA 29.78 1008.5
11:53 pm PDT S 18.4 10.00 Fair -- 59.0 51.1 75% 56 NA 29.78 1008.4
10:53 pm PDT S 18.4 10.00 A Few Clouds -- 60.0 51.1 72% 57 NA 29.78 1008.4
9:53 pm PDT S 15.0 G 21.9 10.00 Fair -- 62.0 50.0 65% 60 NA 29.78 1008.2
8:53 pm PDT S 15.0 10.00 Fair -- 64.0 52.0 65% NA NA 29.77 1008.0

Regional Weather Observation


Lincoln Regional Karl Harder Field, CA (KLHM)

Fair
68.0 F

Yolo County Airport, CA (KDWA)

Fair
81.0 F

University Airport, CA (KEDU)

Fair
59.0 F

Sacramento, McClellan Airfield Airport, CA (KMCC)

Fair
73.0 F

Marysville, Yuba County Airport, CA (KMYV)

Fair
75.0 F

Auburn Municipal Airport, CA (KAUN)

Fair
72.0 F
Advertise Here


Advertise Here